| time (UTC) | temp F | wind direction | speed knots | gust knots | rain 1hr in | rain 24hr in | rain mn in | humidity % | barometer mb |
| 20260510175607 | 68 | 246 | 0.0 | 0.0 | 0.00 | 0.33 | 0.00 | 64 | 1009.7 |
| 20260510174608 | 68 | 265 | 0.0 | 0.0 | 0.00 | 0.35 | 0.00 | 62 | 1009.7 |
| 20260510174108 | 68 | 232 | 0.0 | 0.0 | 0.00 | 0.35 | 0.00 | 61 | 1009.3 |
| 20260510173608 | 69 | 188 | 0.0 | 0.0 | 0.00 | 0.36 | 0.00 | 63 | 1009.4 |
| 20260510173109 | 68 | 239 | 0.0 | 0.0 | 0.00 | 0.36 | 0.00 | 62 | 1009.3 |
| 20260510172609 | 68 | 232 | 0.0 | 0.0 | 0.00 | 0.36 | 0.00 | 62 | 1009.3 |
| 20260510172110 | 68 | 240 | 0.0 | 0.0 | 0.00 | 0.36 | 0.00 | 61 | 1009.3 |
| 20260510171110 | 68 | 268 | 0.0 | 0.0 | 0.00 | 0.36 | 0.00 | 63 | 1009.3 |
| 20260510170612 | 68 | 237 | 0.0 | 0.0 | 0.00 | 0.36 | 0.00 | 63 | 1009.3 |
| 20260510165612 | 68 | 205 | 0.0 | 0.0 | 0.00 | 0.36 | 0.00 | 65 | 1009.4 |
| 20260510165112 | 68 | 274 | 0.0 | 0.0 | 0.00 | 0.36 | 0.00 | 64 | 1009.4 |
| 20260510164113 | 68 | 195 | 0.0 | 0.0 | 0.00 | 0.36 | 0.00 | 65 | 1009.5 |
| 20260510163613 | 67 | 185 | 0.0 | 0.0 | 0.00 | 0.36 | 0.00 | 66 | 1009.4 |
| 20260510162614 | 68 | 233 | 0.0 | 0.0 | 0.00 | 0.36 | 0.00 | 66 | 1009.5 |
| 20260510162114 | 68 | 220 | 0.0 | 0.0 | 0.00 | 0.36 | 0.00 | 66 | 1009.5 |
| 20260510161614 | 67 | 215 | 0.0 | 0.0 | 0.00 | 0.36 | 0.00 | 67 | 1009.4 |
| 20260510161115 | 67 | 257 | 0.0 | 0.0 | 0.00 | 0.36 | 0.00 | 68 | 1009.4 |
| 20260510160616 | 67 | 181 | 0.0 | 0.0 | 0.00 | 0.36 | 0.00 | 68 | 1009.4 |
| 20260510155616 | 66 | 270 | 0.0 | 0.0 | 0.00 | 0.36 | 0.00 | 70 | 1009.5 |
| 20260510154617 | 66 | 271 | 0.0 | 0.0 | 0.00 | 0.36 | 0.00 | 70 | 1009.5 |
| 20260510154130 | 66 | 208 | 0.0 | 0.0 | 0.00 | 0.36 | 0.00 | 71 | 1009.3 |
| 20260510153118 | 66 | 217 | 0.0 | 0.0 | 0.00 | 0.36 | 0.00 | 72 | 1009.3 |
| 20260510152121 | 65 | 184 | 0.0 | 0.0 | 0.00 | 0.36 | 0.00 | 73 | 1009.4 |
| 20260510151620 | 65 | 234 | 0.0 | 0.0 | 0.00 | 0.36 | 0.00 | 74 | 1009.4 |
| 20260510150620 | 64 | 287 | 0.0 | 0.0 | 0.00 | 0.36 | 0.00 | 76 | 1009.3 |
| 20260510145551 | 64 | 164 | 0.0 | 0.0 | 0.00 | 0.36 | 0.00 | 84 | 1009.3 |
| 20260510145121 | 63 | 162 | 0.0 | 0.0 | 0.00 | 0.36 | 0.00 | 86 | 1009.3 |
| 20260510144622 | 62 | 193 | 0.0 | 0.0 | 0.00 | 0.36 | 0.00 | 88 | 1009.2 |
| 20260510143623 | 61 | 150 | 0.0 | 0.0 | 0.00 | 0.36 | 0.00 | 92 | 1009.3 |
| 20260510142554 | 60 | 178 | 0.0 | 0.0 | 0.00 | 0.36 | 0.00 | 96 | 1009.2 |
| 20260510142055 | 59 | 198 | 0.0 | 0.0 | 0.00 | 0.36 | 0.00 | 97 | 1009.2 |
| 20260510141055 | 59 | 226 | 0.0 | 0.0 | 0.00 | 0.36 | 0.00 | 97 | 1009.2 |
| 20260510140557 | 59 | 165 | 0.0 | 0.0 | 0.00 | 0.36 | 0.00 | 100 | 1009.2 |
| 20260510135556 | 57 | 198 | 0.0 | 0.0 | 0.00 | 0.36 | 0.00 | 100 | 1008.9 |
| 20260510135057 | 57 | 210 | 0.0 | 0.0 | 0.00 | 0.36 | 0.00 | 100 | 1008.9 |
| 20260510134558 | 57 | 210 | 0.0 | 0.0 | 0.00 | 0.36 | 0.00 | 100 | 1008.9 |
| 20260510134058 | 57 | 165 | 0.0 | 0.0 | 0.00 | 0.36 | 0.00 | 100 | 1009.0 |
| 20260510133559 | 56 | 182 | 0.0 | 0.0 | 0.00 | 0.36 | 0.00 | 100 | 1009.0 |
| 20260510132600 | 55 | 247 | 0.0 | 0.0 | 0.00 | 0.36 | 0.00 | 100 | 1009.0 |
| 20260510132100 | 55 | 216 | 0.0 | 0.0 | 0.00 | 0.36 | 0.00 | 100 | 1009.0 |
| 20260510131601 | 55 | 232 | 0.0 | 0.0 | 0.00 | 0.36 | 0.00 | 100 | 1009.0 |
| 20260510131100 | 54 | 164 | 0.0 | 0.0 | 0.00 | 0.36 | 0.00 | 100 | 1009.1 |
| 20260510130601 | 54 | 168 | 0.0 | 0.0 | 0.00 | 0.36 | 0.00 | 100 | 1009.1 |
| 20260510125602 | 53 | 234 | 0.0 | 0.0 | 0.00 | 0.36 | 0.00 | 100 | 1008.9 |
| 20260510125102 | 52 | 216 | 0.0 | 0.0 | 0.00 | 0.36 | 0.00 | 100 | 1008.9 |
| 20260510124603 | 52 | 206 | 0.0 | 0.0 | 0.00 | 0.36 | 0.00 | 100 | 1008.9 |
| 20260510123106 | 51 | 336 | 0.0 | 0.0 | 0.00 | 0.36 | 0.00 | 100 | 1008.4 |
| 20260510122604 | 51 | 336 | 0.0 | 0.0 | 0.00 | 0.36 | 0.00 | 100 | 1008.4 |
| 20260510122105 | 51 | 336 | 0.0 | 0.0 | 0.00 | 0.36 | 0.00 | 100 | 1008.4 |
| 20260510121605 | 50 | 336 | 0.0 | 0.0 | 0.00 | 0.36 | 0.00 | 100 | 1008.4 |
| 20260510121105 | 50 | 336 | 0.0 | 0.0 | 0.00 | 0.36 | 0.00 | 100 | 1008.4 |
| 20260510120606 | 50 | 336 | 0.0 | 0.0 | 0.00 | 0.36 | 0.00 | 100 | 1008.4 |
| 20260510115107 | 49 | 336 | 0.0 | 0.0 | 0.00 | 0.36 | 0.00 | 100 | 1008.1 |
| 20260510114108 | 49 | 346 | 0.0 | 0.0 | 0.00 | 0.36 | 0.00 | 100 | 1007.9 |
| 20260510113609 | 49 | 346 | 0.0 | 0.0 | 0.00 | 0.36 | 0.00 | 100 | 1007.9 |
| 20260510112610 | 49 | 346 | 0.0 | 0.0 | 0.00 | 0.36 | 0.00 | 100 | 1008.0 |
| 20260510112110 | 49 | 346 | 0.0 | 0.0 | 0.00 | 0.36 | 0.00 | 100 | 1008.0 |
| 20260510111610 | 49 | 346 | 0.0 | 0.0 | 0.00 | 0.36 | 0.00 | 100 | 1008.0 |
| 20260510111111 | 49 | 346 | 0.0 | 0.0 | 0.00 | 0.36 | 0.00 | 100 | 1008.0 |
| 20260510110611 | 49 | 346 | 0.0 | 0.0 | 0.00 | 0.36 | 0.00 | 100 | 1008.0 |
| 20260510105612 | 49 | 346 | 0.0 | 0.0 | 0.00 | 0.36 | 0.00 | 100 | 1007.9 |
| 20260510104613 | 49 | 346 | 0.0 | 0.0 | 0.00 | 0.36 | 0.00 | 100 | 1007.9 |
| 20260510104113 | 49 | 346 | 0.0 | 0.0 | 0.00 | 0.36 | 0.00 | 100 | 1007.6 |
| 20260510103613 | 49 | 346 | 0.0 | 0.0 | 0.00 | 0.36 | 0.00 | 100 | 1007.6 |
| 20260510102614 | 48 | 346 | 0.0 | 0.0 | 0.00 | 0.36 | 0.00 | 100 | 1007.4 |
| 20260510102115 | 48 | 346 | 0.0 | 0.0 | 0.00 | 0.36 | 0.00 | 100 | 1007.4 |
| 20260510101615 | 48 | 346 | 0.0 | 0.0 | 0.00 | 0.36 | 0.00 | 100 | 1007.4 |
| 20260510100616 | 49 | 346 | 0.0 | 0.0 | 0.00 | 0.36 | 0.00 | 100 | 1007.5 |
| 20260510095617 | 49 | 346 | 0.0 | 0.0 | 0.00 | 0.36 | 0.00 | 100 | 1007.5 |
| 20260510095117 | 49 | 344 | 0.0 | 0.0 | 0.00 | 0.36 | 0.00 | 100 | 1007.5 |
| 20260510094617 | 49 | 344 | 0.0 | 0.0 | 0.00 | 0.36 | 0.00 | 100 | 1007.5 |
| 20260510093619 | 49 | 344 | 0.0 | 0.0 | 0.00 | 0.36 | 0.00 | 100 | 1007.6 |
| 20260510093119 | 49 | 344 | 0.0 | 0.0 | 0.00 | 0.36 | 0.00 | 100 | 1007.6 |
| 20260510092620 | 49 | 344 | 0.0 | 0.0 | 0.00 | 0.36 | 0.00 | 100 | 1007.5 |
| 20260510091620 | 49 | 344 | 0.0 | 0.0 | 0.00 | 0.36 | 0.00 | 100 | 1007.5 |
| 20260510091122 | 49 | 344 | 0.0 | 0.0 | 0.00 | 0.36 | 0.00 | 100 | 1007.5 |
| 20260510090551 | 49 | 344 | 0.0 | 0.0 | 0.00 | 0.36 | 0.00 | 100 | 1007.5 |
| 20260510085623 | 49 | 344 | 0.0 | 0.0 | 0.00 | 0.36 | 0.00 | 100 | 1007.8 |
| 20260510085053 | 49 | 344 | 0.0 | 0.0 | 0.00 | 0.36 | 0.00 | 100 | 1007.8 |
| 20260510084554 | 49 | 344 | 0.0 | 0.0 | 0.00 | 0.36 | 0.00 | 100 | 1007.8 |
| 20260510084053 | 49 | 344 | 0.0 | 0.0 | 0.00 | 0.36 | 0.00 | 100 | 1007.9 |
| 20260510083554 | 49 | 344 | 0.0 | 0.0 | 0.00 | 0.36 | 0.00 | 100 | 1007.9 |
| 20260510083055 | 49 | 344 | 0.0 | 0.0 | 0.00 | 0.36 | 0.00 | 100 | 1007.9 |
| 20260510082055 | 49 | 344 | 0.0 | 0.0 | 0.00 | 0.36 | 0.00 | 100 | 1008.0 |
| 20260510081056 | 48 | 344 | 0.0 | 0.0 | 0.00 | 0.36 | 0.00 | 100 | 1007.9 |
| 20260510075557 | 48 | 322 | 0.0 | 0.0 | 0.00 | 0.36 | 0.00 | 100 | 1007.5 |
| 20260510075058 | 48 | 352 | 0.0 | 0.0 | 0.00 | 0.36 | 0.00 | 100 | 1007.5 |
| 20260510073559 | 47 | 155 | 0.0 | 0.0 | 0.00 | 0.36 | 0.00 | 100 | 1007.0 |
| 20260510073059 | 48 | 154 | 0.0 | 0.0 | 0.00 | 0.36 | 0.00 | 100 | 1007.0 |
| 20260510072559 | 48 | 155 | 0.0 | 0.0 | 0.00 | 0.36 | 0.00 | 100 | 1007.0 |
| 20260510072059 | 48 | 155 | 0.0 | 0.0 | 0.00 | 0.36 | 0.00 | 100 | 1007.0 |
| 20260510071600 | 48 | 155 | 0.0 | 0.0 | 0.00 | 0.36 | 0.00 | 100 | 1007.0 |
| 20260510071529 | 48 | 0 | 0.0 | 0.0 | 0.00 | 0.36 | 0.00 | 100 | 1007.0 |
| 20260510071507 | 48 | 0 | 0.0 | 0.0 | 0.00 | 0.36 | 0.00 | 100 | 1006.9 |
| 20260510065102 | 49 | 155 | 0.0 | 0.0 | 0.00 | 0.36 | 0.00 | 100 | 1007.3 |
| 20260510064603 | 49 | 155 | 0.0 | 0.0 | 0.00 | 0.36 | 0.00 | 100 | 1007.3 |
| 20260510064103 | 48 | 155 | 0.0 | 0.0 | 0.00 | 0.36 | 0.00 | 100 | 1007.4 |
| 20260510063603 | 48 | 155 | 0.0 | 0.0 | 0.00 | 0.36 | 0.00 | 100 | 1007.4 |
| 20260510063104 | 49 | 155 | 0.0 | 0.0 | 0.00 | 0.36 | 0.00 | 100 | 1007.5 |
| 20260510062604 | 49 | 155 | 0.0 | 0.0 | 0.00 | 0.36 | 0.00 | 100 | 1007.5 |
| 20260510062106 | 49 | 155 | 0.0 | 0.0 | 0.00 | 0.36 | 0.00 | 100 | 1007.5 |
| 20260510061605 | 49 | 155 | 0.0 | 0.0 | 0.00 | 0.36 | 0.00 | 100 | 1007.5 |
| 20260510061105 | 49 | 155 | 0.0 | 0.0 | 0.00 | 0.36 | 0.00 | 100 | 1007.2 |
| 20260510060607 | 49 | 154 | 0.0 | 0.0 | 0.00 | 0.36 | 0.00 | 100 | 1007.2 |
| 20260510055606 | 48 | 154 | 0.0 | 0.0 | 0.00 | 0.36 | 0.00 | 100 | 1007.1 |
| 20260510055107 | 48 | 154 | 0.0 | 0.0 | 0.00 | 0.36 | 0.00 | 100 | 1007.1 |
| 20260510054108 | 48 | 155 | 0.0 | 0.0 | 0.00 | 0.36 | 0.00 | 100 | 1007.1 |
| 20260510053608 | 48 | 155 | 0.0 | 0.0 | 0.00 | 0.36 | 0.00 | 100 | 1007.1 |
| 20260510053109 | 48 | 155 | 0.0 | 0.0 | 0.00 | 0.36 | 0.00 | 100 | 1007.1 |
| 20260510052110 | 48 | 154 | 0.0 | 0.0 | 0.00 | 0.36 | 0.00 | 100 | 1007.1 |
| 20260510051610 | 48 | 155 | 0.0 | 0.0 | 0.00 | 0.36 | 0.00 | 100 | 1007.1 |
| 20260510051111 | 48 | 155 | 0.0 | 0.0 | 0.00 | 0.36 | 0.00 | 100 | 1007.2 |
| 20260510045612 | 49 | 155 | 0.0 | 0.0 | 0.00 | 0.36 | 0.00 | 100 | 1007.4 |
| 20260510045113 | 49 | 155 | 0.0 | 0.0 | 0.00 | 0.36 | 0.00 | 100 | 1007.4 |
| 20260510044113 | 49 | 155 | 0.0 | 0.0 | 0.00 | 0.36 | 0.00 | 100 | 1007.5 |
| 20260510043613 | 49 | 155 | 0.0 | 0.0 | 0.00 | 0.36 | 0.00 | 100 | 1007.5 |
| 20260510043113 | 49 | 155 | 0.0 | 0.0 | 0.00 | 0.36 | 0.00 | 100 | 1007.5 |
| 20260510042614 | 49 | 155 | 0.0 | 0.0 | 0.00 | 0.36 | 0.00 | 100 | 1007.6 |
| 20260510042114 | 49 | 155 | 0.0 | 0.0 | 0.00 | 0.36 | 0.00 | 100 | 1007.6 |
| 20260510040616 | 49 | 155 | 0.0 | 0.0 | 0.00 | 0.36 | 0.00 | 100 | 1007.5 |
| 20260510035617 | 49 | 155 | 0.0 | 0.0 | 0.00 | 0.36 | 0.36 | 100 | 1007.5 |
| 20260510035117 | 49 | 155 | 0.0 | 0.0 | 0.00 | 0.36 | 0.36 | 100 | 1007.5 |
| 20260510034618 | 49 | 155 | 0.0 | 0.0 | 0.00 | 0.36 | 0.36 | 100 | 1007.5 |
| 20260510034118 | 49 | 155 | 0.0 | 0.0 | 0.00 | 0.36 | 0.36 | 100 | 1007.2 |
| 20260510033618 | 49 | 155 | 0.0 | 0.0 | 0.00 | 0.36 | 0.36 | 100 | 1007.2 |
| 20260510033119 | 49 | 155 | 0.0 | 0.0 | 0.00 | 0.36 | 0.36 | 100 | 1007.2 |
| 20260510032619 | 49 | 154 | 0.0 | 0.0 | 0.00 | 0.36 | 0.36 | 100 | 1007.2 |
| 20260510032119 | 49 | 155 | 0.0 | 0.0 | 0.00 | 0.36 | 0.36 | 100 | 1007.2 |
| 20260510030621 | 50 | 154 | 0.0 | 0.0 | 0.00 | 0.36 | 0.36 | 100 | 1007.1 |
| 20260510025621 | 50 | 155 | 0.0 | 0.0 | 0.00 | 0.36 | 0.36 | 100 | 1007.1 |
| 20260510025122 | 50 | 155 | 0.0 | 0.0 | 0.00 | 0.36 | 0.36 | 100 | 1007.1 |
| 20260510024122 | 50 | 155 | 0.0 | 0.0 | 0.00 | 0.36 | 0.36 | 100 | 1007.1 |
| 20260510023554 | 50 | 155 | 0.0 | 0.0 | 0.00 | 0.36 | 0.36 | 100 | 1007.1 |
| 20260510022553 | 50 | 155 | 0.0 | 0.0 | 0.00 | 0.36 | 0.36 | 100 | 1007.1 |
| 20260510022054 | 50 | 155 | 0.0 | 0.0 | 0.00 | 0.36 | 0.36 | 100 | 1007.1 |
| 20260510021555 | 50 | 155 | 0.0 | 0.0 | 0.00 | 0.36 | 0.36 | 100 | 1007.1 |
| 20260510021056 | 50 | 155 | 0.0 | 0.0 | 0.00 | 0.36 | 0.36 | 100 | 1007.2 |
| 20260510020555 | 50 | 154 | 0.0 | 0.0 | 0.00 | 0.36 | 0.36 | 100 | 1007.2 |
| 20260510020155 | 50 | 155 | 0.0 | 0.0 | 0.00 | 0.36 | 0.36 | 100 | 1007.2 |
| 20260510015557 | 50 | 155 | 0.0 | 0.0 | 0.00 | 0.36 | 0.36 | 100 | 1007.1 |
| 20260510015056 | 50 | 155 | 0.0 | 0.0 | 0.00 | 0.36 | 0.36 | 100 | 1007.1 |
| 20260510014057 | 49 | 155 | 0.0 | 0.0 | 0.00 | 0.36 | 0.36 | 100 | 1007.0 |
| 20260510013558 | 50 | 155 | 0.0 | 0.0 | 0.00 | 0.36 | 0.36 | 100 | 1007.0 |
| 20260510013058 | 50 | 155 | 0.0 | 0.0 | 0.00 | 0.36 | 0.36 | 100 | 1007.0 |
| 20260510012559 | 50 | 155 | 0.0 | 0.0 | 0.00 | 0.36 | 0.36 | 100 | 1007.0 |
| 20260510012100 | 50 | 155 | 0.0 | 0.0 | 0.00 | 0.36 | 0.36 | 100 | 1007.0 |
| 20260510011559 | 50 | 155 | 0.0 | 0.0 | 0.00 | 0.36 | 0.36 | 100 | 1007.0 |
| 20260510011100 | 50 | 155 | 0.0 | 0.0 | 0.00 | 0.36 | 0.36 | 100 | 1006.9 |
| 20260510010600 | 50 | 155 | 0.0 | 0.0 | 0.00 | 0.36 | 0.36 | 100 | 1006.9 |
| 20260510010131 | 51 | 155 | 0.0 | 0.0 | 0.00 | 0.36 | 0.36 | 100 | 1006.9 |
| 20260510005601 | 51 | 155 | 0.0 | 0.0 | 0.00 | 0.36 | 0.36 | 100 | 1006.5 |
| 20260510004602 | 51 | 155 | 0.0 | 0.0 | 0.00 | 0.36 | 0.36 | 100 | 1006.5 |
| 20260510004102 | 51 | 155 | 0.0 | 0.0 | 0.00 | 0.36 | 0.36 | 100 | 1006.3 |
| 20260510003103 | 52 | 155 | 0.0 | 0.0 | 0.00 | 0.36 | 0.36 | 100 | 1006.3 |
| 20260510002603 | 52 | 155 | 0.0 | 0.0 | 0.00 | 0.36 | 0.36 | 100 | 1006.3 |
| 20260510002105 | 52 | 155 | 0.0 | 0.0 | 0.00 | 0.36 | 0.36 | 100 | 1006.3 |
| 20260510001104 | 52 | 155 | 0.0 | 0.0 | 0.00 | 0.36 | 0.36 | 100 | 1006.4 |
| 20260510000606 | 52 | 155 | 0.0 | 0.0 | 0.00 | 0.36 | 0.36 | 100 | 1006.4 |
| 20260509235606 | 52 | 155 | 0.0 | 0.0 | 0.00 | 0.36 | 0.36 | 100 | 1006.4 |
| 20260509235107 | 52 | 155 | 0.0 | 0.0 | 0.00 | 0.36 | 0.36 | 100 | 1006.4 |
| 20260509234607 | 52 | 155 | 0.0 | 0.0 | 0.00 | 0.36 | 0.36 | 100 | 1006.4 |
| 20260509233608 | 52 | 154 | 0.0 | 0.0 | 0.00 | 0.36 | 0.36 | 100 | 1006.1 |
| 20260509233108 | 52 | 154 | 0.0 | 0.0 | 0.00 | 0.36 | 0.36 | 100 | 1006.1 |
| 20260509232608 | 53 | 154 | 0.0 | 0.0 | 0.00 | 0.36 | 0.36 | 100 | 1006.0 |
| 20260509232109 | 53 | 154 | 0.0 | 0.0 | 0.00 | 0.36 | 0.36 | 100 | 1006.0 |
| 20260509231610 | 53 | 154 | 0.0 | 0.0 | 0.00 | 0.36 | 0.36 | 100 | 1006.0 |
| 20260509231110 | 53 | 154 | 0.0 | 0.0 | 0.00 | 0.36 | 0.36 | 100 | 1006.0 |
| 20260509230610 | 53 | 154 | 0.0 | 0.0 | 0.00 | 0.36 | 0.36 | 100 | 1006.0 |
| 20260509225612 | 54 | 154 | 0.0 | 0.0 | 0.00 | 0.36 | 0.36 | 100 | 1006.0 |
| 20260509225111 | 54 | 154 | 0.0 | 0.0 | 0.00 | 0.36 | 0.36 | 100 | 1006.0 |
| 20260509224611 | 54 | 154 | 0.0 | 0.0 | 0.00 | 0.36 | 0.36 | 100 | 1006.0 |
| 20260509224112 | 55 | 195 | 0.0 | 0.0 | 0.00 | 0.36 | 0.36 | 100 | 1006.1 |
| 20260509223613 | 55 | 171 | 0.0 | 0.0 | 0.00 | 0.36 | 0.36 | 100 | 1006.1 |
| 20260509222614 | 54 | 182 | 0.0 | 0.0 | 0.00 | 0.36 | 0.36 | 100 | 1006.2 |
| 20260509222114 | 54 | 182 | 0.0 | 0.0 | 0.00 | 0.36 | 0.36 | 100 | 1006.2 |
| 20260509221614 | 54 | 182 | 0.0 | 0.0 | 0.00 | 0.36 | 0.36 | 100 | 1006.2 |
| 20260509221114 | 54 | 182 | 0.0 | 0.0 | 0.00 | 0.36 | 0.36 | 100 | 1006.3 |
| 20260509220615 | 54 | 182 | 0.0 | 0.0 | 0.01 | 0.36 | 0.36 | 100 | 1006.3 |
| 20260509215116 | 54 | 226 | 0.0 | 0.0 | 0.02 | 0.36 | 0.36 | 100 | 1006.4 |
| 20260509214616 | 54 | 226 | 0.0 | 0.0 | 0.02 | 0.36 | 0.36 | 100 | 1006.4 |
| 20260509213617 | 54 | 226 | 0.0 | 0.0 | 0.08 | 0.36 | 0.36 | 100 | 1006.1 |
| 20260509213118 | 54 | 224 | 0.0 | 0.0 | 0.08 | 0.36 | 0.36 | 100 | 1006.1 |
| 20260509212618 | 53 | 224 | 0.0 | 0.0 | 0.08 | 0.36 | 0.36 | 100 | 1006.3 |
| 20260509212119 | 53 | 224 | 0.0 | 0.0 | 0.09 | 0.36 | 0.36 | 100 | 1006.3 |
| 20260509211120 | 53 | 224 | 0.0 | 0.0 | 0.10 | 0.36 | 0.36 | 100 | 1006.3 |
| 20260509210620 | 52 | 226 | 0.0 | 0.0 | 0.09 | 0.35 | 0.35 | 100 | 1006.3 |
| 20260509205621 | 52 | 224 | 0.0 | 0.0 | 0.11 | 0.35 | 0.35 | 100 | 1006.3 |
| 20260509205123 | 52 | 224 | 0.0 | 0.0 | 0.11 | 0.34 | 0.34 | 100 | 1006.3 |
| 20260509204621 | 52 | 226 | 0.0 | 0.0 | 0.13 | 0.34 | 0.34 | 100 | 1006.3 |
| 20260509204121 | 52 | 224 | 0.0 | 0.0 | 0.10 | 0.30 | 0.30 | 100 | 1006.3 |
| 20260509203622 | 52 | 224 | 0.0 | 0.0 | 0.09 | 0.28 | 0.28 | 100 | 1006.3 |
| 20260509203122 | 52 | 224 | 0.0 | 0.0 | 0.09 | 0.28 | 0.28 | 100 | 1006.3 |
| 20260509202053 | 52 | 226 | 0.0 | 0.0 | 0.09 | 0.27 | 0.27 | 100 | 1006.3 |
| 20260509201554 | 52 | 224 | 0.0 | 0.0 | 0.10 | 0.27 | 0.27 | 100 | 1006.3 |
| 20260509201054 | 53 | 224 | 0.0 | 0.0 | 0.10 | 0.26 | 0.26 | 100 | 1006.6 |
| 20260509200557 | 52 | 224 | 0.0 | 0.0 | 0.11 | 0.26 | 0.26 | 100 | 1006.6 |
| 20260509195616 | 52 | 224 | 0.0 | 0.0 | 0.11 | 0.24 | 0.24 | 100 | 1007.1 |
| 20260509195056 | 52 | 226 | 0.0 | 0.0 | 0.11 | 0.23 | 0.23 | 100 | 1007.1 |
| 20260509194626 | 52 | 224 | 0.0 | 0.0 | 0.10 | 0.21 | 0.21 | 100 | 1007.1 |
| 20260509194056 | 53 | 244 | 0.0 | 0.0 | 0.10 | 0.20 | 0.20 | 100 | 1007.1 |
| 20260509193557 | 52 | 244 | 0.0 | 0.0 | 0.10 | 0.19 | 0.19 | 100 | 1007.1 |
| 20260509193058 | 53 | 244 | 0.0 | 0.0 | 0.10 | 0.19 | 0.19 | 100 | 1007.1 |
| 20260509192558 | 53 | 246 | 0.0 | 0.0 | 0.10 | 0.18 | 0.18 | 100 | 1007.2 |
| 20260509192058 | 53 | 248 | 0.0 | 0.0 | 0.10 | 0.19 | 0.18 | 100 | 1007.2 |
| 20260509191629 | 53 | 254 | 0.0 | 0.0 | 0.10 | 0.18 | 0.17 | 100 | 1007.2 |
| 20260509191059 | 53 | 239 | 0.0 | 0.0 | 0.10 | 0.17 | 0.16 | 100 | 1007.3 |
| 20260509190600 | 53 | 243 | 0.0 | 0.0 | 0.09 | 0.16 | 0.15 | 100 | 1007.3 |
| 20260509185600 | 53 | 233 | 0.0 | 0.0 | 0.10 | 0.14 | 0.13 | 100 | 1007.3 |
| 20260509185100 | 53 | 260 | 0.0 | 0.0 | 0.10 | 0.13 | 0.12 | 100 | 1007.3 |
| 20260509184601 | 53 | 251 | 0.0 | 0.0 | 0.10 | 0.12 | 0.11 | 100 | 1007.3 |
| 20260509184101 | 53 | 247 | 0.0 | 0.0 | 0.09 | 0.11 | 0.10 | 99 | 1007.0 |
| 20260509183602 | 54 | 230 | 0.0 | 0.0 | 0.09 | 0.10 | 0.09 | 98 | 1007.1 |
| 20260509183102 | 53 | 230 | 0.0 | 0.0 | 0.09 | 0.10 | 0.09 | 98 | 1007.0 |
| 20260509182602 | 53 | 230 | 0.0 | 0.0 | 0.08 | 0.09 | 0.08 | 97 | 1007.3 |
| 20260509182103 | 53 | 230 | 0.0 | 0.0 | 0.08 | 0.09 | 0.08 | 97 | 1007.3 |
| 20260509181603 | 54 | 230 | 0.0 | 0.0 | 0.07 | 0.08 | 0.07 | 96 | 1007.4 |
| 20260509181104 | 54 | 233 | 0.0 | 0.0 | 0.06 | 0.07 | 0.06 | 95 | 1007.9 |
| 20260509180605 | 54 | 251 | 0.0 | 0.0 | 0.06 | 0.07 | 0.06 | 95 | 1007.9 |